Time,TemperatureF,DewpointF,PressureIn,WindDirection,WindDirectionDegrees,WindSpeedMPH,WindSpeedGustMPH,Humidity,HourlyPrecipIn,Conditions,Clouds,dailyrainin,SoftwareType,DateUTC
2013-07-18 00:10:00,72.7,71.5,30.03,WSW,247,0.0,-999.0,96,-99.99,,,0.00,Acu-Link.com,2013-07-18 04:10:00,
2013-07-18 00:25:00,72.7,71.5,30.04,SW,225,0.0,-999.0,96,-99.99,,,0.00,Acu-Link.com,2013-07-18 04:25:00,
2013-07-18 00:40:00,72.3,71.4,30.03,WNW,292,0.0,-999.0,97,-99.99,,,0.00,Acu-Link.com,2013-07-18 04:40:00,
2013-07-18 00:55:00,72.3,71.7,30.03,West,270,0.0,-999.0,98,-99.99,,,0.00,Acu-Link.com,2013-07-18 04:55:00,
2013-07-18 01:11:00,72.0,71.7,30.02,NW,315,0.0,-999.0,99,-99.99,,,0.00,Acu-Link.com,2013-07-18 05:11:00,
2013-07-18 01:26:00,72.0,71.7,30.01,NNW,337,0.0,-999.0,99,-99.99,,,0.00,Acu-Link.com,2013-07-18 05:26:00,
2013-07-18 01:41:00,71.8,71.5,30.02,NNW,337,1.7,-999.0,99,-99.99,,,0.00,Acu-Link.com,2013-07-18 05:41:00,
2013-07-18 01:56:00,71.8,71.5,30.00,ENE,67,0.0,-999.0,99,-99.99,,,0.00,Acu-Link.com,2013-07-18 05:56:00,
2013-07-18 02:11:00,71.6,71.3,30.00,SW,225,0.0,-999.0,99,-99.99,,,0.00,Acu-Link.com,2013-07-18 06:11:00,
2013-07-18 02:26:00,71.4,71.1,29.97,SW,225,0.0,-999.0,99,-99.99,,,0.00,Acu-Link.com,2013-07-18 06:26:00,
2013-07-18 02:41:00,71.2,70.9,29.97,West,270,0.0,-999.0,99,-99.99,,,0.00,Acu-Link.com,2013-07-18 06:41:00,
2013-07-18 02:56:00,71.1,70.8,29.96,SW,225,0.0,-999.0,99,-99.99,,,0.00,Acu-Link.com,2013-07-18 06:56:00,
2013-07-18 03:11:00,70.9,70.6,29.95,NW,315,0.0,-999.0,99,-99.99,,,0.00,Acu-Link.com,2013-07-18 07:11:00,
2013-07-18 03:27:00,70.7,70.4,29.94,NNE,22,0.0,-999.0,99,-99.99,,,0.00,Acu-Link.com,2013-07-18 07:27:00,
2013-07-18 03:42:00,70.5,70.2,29.94,North,0,0.0,-999.0,99,-99.99,,,0.00,Acu-Link.com,2013-07-18 07:42:00,
2013-07-18 03:57:00,70.7,70.4,29.95,East,90,3.7,-999.0,99,-99.99,,,0.00,Acu-Link.com,2013-07-18 07:57:00,
2013-07-18 04:12:00,70.7,70.4,29.95,North,0,1.7,-999.0,99,-99.99,,,0.00,Acu-Link.com,2013-07-18 08:12:00,
2013-07-18 04:28:00,70.7,70.4,29.95,ENE,67,2.2,-999.0,99,-99.99,,,0.00,Acu-Link.com,2013-07-18 08:28:00,
2013-07-18 04:43:00,70.7,70.4,29.95,NW,315,1.1,-999.0,99,-99.99,,,0.00,Acu-Link.com,2013-07-18 08:43:00,
2013-07-18 04:58:00,70.5,70.2,29.97,West,270,0.0,-999.0,99,-99.99,,,0.00,Acu-Link.com,2013-07-18 08:58:00,
2013-07-18 05:13:00,70.2,69.9,29.97,WSW,247,0.0,-999.0,99,-99.99,,,0.00,Acu-Link.com,2013-07-18 09:13:00,
2013-07-18 05:28:00,69.8,69.5,29.97,WSW,247,0.0,-999.0,99,-99.99,,,0.00,Acu-Link.com,2013-07-18 09:28:00,
2013-07-18 05:44:00,69.8,69.5,29.97,ESE,112,0.0,-999.0,99,-99.99,,,0.00,Acu-Link.com,2013-07-18 09:44:00,
2013-07-18 05:59:00,69.8,69.5,29.97,West,270,0.0,-999.0,99,-99.99,,,0.00,Acu-Link.com,2013-07-18 09:59:00,
2013-07-18 06:14:00,69.8,69.5,29.97,West,270,0.0,-999.0,99,-99.99,,,0.00,Acu-Link.com,2013-07-18 10:14:00,
2013-07-18 06:29:00,69.6,69.3,29.99,West,270,0.0,-999.0,99,-99.99,,,0.00,Acu-Link.com,2013-07-18 10:29:00,
2013-07-18 06:44:00,69.4,69.1,30.00,WNW,292,0.0,-999.0,99,-99.99,,,0.01,Acu-Link.com,2013-07-18 10:44:00,
2013-07-18 06:59:00,70.0,69.7,29.98,SW,225,0.0,-999.0,99,-99.99,,,0.01,Acu-Link.com,2013-07-18 10:59:00,
2013-07-18 07:15:00,71.4,71.1,29.99,SE,135,0.0,-999.0,99,-99.99,,,0.01,Acu-Link.com,2013-07-18 11:15:00,
2013-07-18 07:30:00,72.1,71.8,30.00,SW,225,0.0,-999.0,99,-99.99,,,0.01,Acu-Link.com,2013-07-18 11:30:00,
2013-07-18 07:45:00,73.6,72.7,29.99,East,90,0.0,-999.0,97,-99.99,,,0.01,Acu-Link.com,2013-07-18 11:45:00,
2013-07-18 08:00:00,76.8,73.6,29.99,SW,225,0.0,-999.0,90,-99.99,,,0.01,Acu-Link.com,2013-07-18 12:00:00,
2013-07-18 08:15:00,79.7,73.3,29.99,East,90,2.7,-999.0,81,-99.99,,,0.01,Acu-Link.com,2013-07-18 12:15:00,
2013-07-18 08:30:00,80.4,73.6,29.98,SSE,157,2.7,-999.0,80,-99.99,,,0.01,Acu-Link.com,2013-07-18 12:30:00,
2013-07-18 08:45:00,82.6,73.5,29.98,NNW,337,2.2,-999.0,74,-99.99,,,0.01,Acu-Link.com,2013-07-18 12:45:00,
2013-07-18 09:02:00,80.4,72.1,29.98,ESE,112,2.7,-999.0,76,-99.99,,,0.01,Acu-Link.com,2013-07-18 13:02:00,
2013-07-18 09:17:00,81.7,73.4,29.99,East,90,4.2,-999.0,76,-99.99,,,0.01,Acu-Link.com,2013-07-18 13:17:00,
2013-07-18 09:32:00,84.0,73.6,29.97,ESE,112,1.7,-999.0,71,-99.99,,,0.01,Acu-Link.com,2013-07-18 13:32:00,
2013-07-18 09:47:00,87.6,75.7,29.97,ESE,112,0.0,-999.0,68,-99.99,,,0.01,Acu-Link.com,2013-07-18 13:47:00,
2013-07-18 10:02:00,88.3,73.6,29.96,NE,45,4.7,-999.0,62,-99.99,,,0.01,Acu-Link.com,2013-07-18 14:02:00,
2013-07-18 10:18:00,87.4,74.2,29.97,ESE,112,2.2,-999.0,65,-99.99,,,0.01,Acu-Link.com,2013-07-18 14:18:00,
2013-07-18 10:33:00,87.3,74.5,29.96,SE,135,2.7,-999.0,66,-99.99,,,0.01,Acu-Link.com,2013-07-18 14:33:00,
2013-07-18 10:48:00,87.3,73.1,29.97,NE,45,4.7,-999.0,63,-99.99,,,0.01,Acu-Link.com,2013-07-18 14:48:00,
2013-07-18 11:03:00,86.2,73.5,29.97,SSE,157,0.0,-999.0,66,-99.99,,,0.01,Acu-Link.com,2013-07-18 15:03:00,
2013-07-18 11:18:00,90.9,74.6,29.95,East,90,3.7,-999.0,59,-99.99,,,0.01,Acu-Link.com,2013-07-18 15:18:00,
2013-07-18 11:33:00,90.5,74.7,29.94,ESE,112,3.7,-999.0,60,-99.99,,,0.01,Acu-Link.com,2013-07-18 15:33:00,
2013-07-18 11:48:00,91.2,74.8,29.95,ENE,67,2.7,-999.0,59,-99.99,,,0.01,Acu-Link.com,2013-07-18 15:48:00,
2013-07-18 12:03:00,92.3,74.3,29.93,SE,135,3.7,-999.0,56,-99.99,,,0.01,Acu-Link.com,2013-07-18 16:03:00,
2013-07-18 12:18:00,94.3,75.6,29.92,SW,225,2.2,-999.0,55,-99.99,,,0.01,Acu-Link.com,2013-07-18 16:18:00,
2013-07-18 12:34:00,92.5,74.5,29.94,ESE,112,4.2,-999.0,56,-99.99,,,0.01,Acu-Link.com,2013-07-18 16:34:00,
2013-07-18 12:49:00,93.6,75.5,29.92,ESE,112,2.7,-999.0,56,-99.99,,,0.01,Acu-Link.com,2013-07-18 16:49:00,
2013-07-18 13:04:00,94.8,76.1,29.92,NE,45,5.3,-999.0,55,-99.99,,,0.01,Acu-Link.com,2013-07-18 17:04:00,
2013-07-18 13:19:00,93.9,75.8,29.93,WSW,247,1.7,-999.0,56,-99.99,,,0.01,Acu-Link.com,2013-07-18 17:19:00,
2013-07-18 13:34:00,94.1,75.4,29.90,WSW,247,1.1,-999.0,55,-99.99,,,0.01,Acu-Link.com,2013-07-18 17:34:00,
2013-07-18 13:49:00,94.3,76.7,29.88,ESE,112,1.7,-999.0,57,-99.99,,,0.01,Acu-Link.com,2013-07-18 17:49:00,
2013-07-18 14:04:00,97.5,75.1,29.87,NNE,22,3.2,-999.0,49,-99.99,,,0.01,Acu-Link.com,2013-07-18 18:04:00,
2013-07-18 14:19:00,97.7,76.5,29.87,ESE,112,3.7,-999.0,51,-99.99,,,0.01,Acu-Link.com,2013-07-18 18:19:00,
2013-07-18 14:34:00,95.4,76.1,29.86,ESE,112,1.7,-999.0,54,-99.99,,,0.01,Acu-Link.com,2013-07-18 18:34:00,
2013-07-18 14:50:00,96.3,76.3,29.87,ESE,112,4.2,-999.0,53,-99.99,,,0.01,Acu-Link.com,2013-07-18 18:50:00,
2013-07-18 15:05:00,95.9,75.4,29.84,ESE,112,3.2,-999.0,52,-99.99,,,0.01,Acu-Link.com,2013-07-18 19:05:00,
2013-07-18 15:20:00,97.5,75.1,29.84,ESE,112,3.7,-999.0,49,-99.99,,,0.01,Acu-Link.com,2013-07-18 19:20:00,
2013-07-18 15:35:00,98.4,74.0,29.83,East,90,3.2,-999.0,46,-99.99,,,0.01,Acu-Link.com,2013-07-18 19:35:00,
2013-07-18 15:50:00,99.9,76.0,29.82,West,270,0.0,-999.0,47,-99.99,,,0.02,Acu-Link.com,2013-07-18 19:50:00,
2013-07-18 16:05:00,101.7,74.2,29.82,WSW,247,2.7,-999.0,42,-99.99,,,0.02,Acu-Link.com,2013-07-18 20:05:00,
2013-07-18 16:22:00,101.1,77.1,29.83,WSW,247,0.0,-999.0,47,-99.99,,,0.02,Acu-Link.com,2013-07-18 20:22:00,
2013-07-18 16:37:00,99.0,73.9,29.80,ESE,112,4.2,-999.0,45,-99.99,,,0.02,Acu-Link.com,2013-07-18 20:37:00,
2013-07-18 16:53:00,98.8,76.9,29.79,WNW,292,0.0,-999.0,50,-99.99,,,0.02,Acu-Link.com,2013-07-18 20:53:00,
2013-07-18 17:08:00,98.4,75.9,29.79,ESE,112,1.1,-999.0,49,-99.99,,,0.02,Acu-Link.com,2013-07-18 21:08:00,
2013-07-18 17:24:00,99.5,74.3,29.78,WSW,247,2.2,-999.0,45,-99.99,,,0.02,Acu-Link.com,2013-07-18 21:24:00,
2013-07-18 17:39:00,96.3,75.2,29.79,ENE,67,4.7,-999.0,51,-99.99,,,0.02,Acu-Link.com,2013-07-18 21:39:00,
2013-07-18 17:55:00,90.9,73.5,29.80,NE,45,3.7,-999.0,57,-99.99,,,0.02,Acu-Link.com,2013-07-18 21:55:00,
2013-07-18 18:10:00,89.8,73.5,29.80,East,90,1.1,-999.0,59,-99.99,,,0.02,Acu-Link.com,2013-07-18 22:10:00,
2013-07-18 18:25:00,89.8,74.0,29.79,WNW,292,1.7,-999.0,60,-99.99,,,0.02,Acu-Link.com,2013-07-18 22:25:00,
2013-07-18 18:47:00,90.3,73.5,29.79,NNE,22,1.7,-999.0,58,-99.99,,,0.02,Acu-Link.com,2013-07-18 22:47:00,
2013-07-18 19:02:00,89.8,74.0,29.80,ESE,112,2.2,-999.0,60,-99.99,,,0.02,Acu-Link.com,2013-07-18 23:02:00,
2013-07-18 19:20:00,89.1,73.9,29.80,SE,135,0.0,-999.0,61,-99.99,,,0.02,Acu-Link.com,2013-07-18 23:20:00,
2013-07-18 19:40:00,88.7,74.9,29.83,SSE,157,0.0,-999.0,64,-99.99,,,0.02,Acu-Link.com,2013-07-18 23:40:00,
2013-07-18 19:55:00,87.6,74.8,29.84,WNW,292,0.0,-999.0,66,-99.99,,,0.02,Acu-Link.com,2013-07-18 23:55:00,
2013-07-18 20:11:00,87.3,77.6,29.83,West,270,0.0,-999.0,73,-99.99,,,0.02,Acu-Link.com,2013-07-19 00:11:00,
2013-07-18 20:26:00,84.9,76.9,29.82,SW,225,3.2,-999.0,77,-99.99,,,0.02,Acu-Link.com,2013-07-19 00:26:00,
2013-07-18 20:42:00,82.9,73.3,29.84,SW,225,1.1,-999.0,73,-99.99,,,0.02,Acu-Link.com,2013-07-19 00:42:00,
2013-07-18 20:58:00,81.3,71.8,29.85,WNW,292,0.0,-999.0,73,-99.99,,,0.02,Acu-Link.com,2013-07-19 00:58:00,
2013-07-18 21:13:00,79.9,73.2,29.86,SW,225,0.0,-999.0,80,-99.99,,,0.02,Acu-Link.com,2013-07-19 01:13:00,
2013-07-18 21:28:00,78.6,71.9,29.87,West,270,0.0,-999.0,80,-99.99,,,0.02,Acu-Link.com,2013-07-19 01:28:00,
2013-07-18 21:43:00,77.7,72.8,29.88,West,270,0.0,-999.0,85,-99.99,,,0.02,Acu-Link.com,2013-07-19 01:43:00,
2013-07-18 21:58:00,77.2,72.3,29.86,South,180,0.0,-999.0,85,-99.99,,,0.02,Acu-Link.com,2013-07-19 01:58:00,
2013-07-18 22:14:00,76.1,72.6,29.87,WSW,247,0.0,-999.0,89,-99.99,,,0.02,Acu-Link.com,2013-07-19 02:14:00,
2013-07-18 22:29:00,75.6,72.5,29.87,SE,135,0.0,-999.0,90,-99.99,,,0.02,Acu-Link.com,2013-07-19 02:29:00,
2013-07-18 22:44:00,75.0,71.9,29.89,WNW,292,0.0,-999.0,90,-99.99,,,0.02,Acu-Link.com,2013-07-19 02:44:00,
2013-07-18 22:59:00,74.1,71.6,29.89,West,270,0.0,-999.0,92,-99.99,,,0.02,Acu-Link.com,2013-07-19 02:59:00,
2013-07-18 23:14:00,73.8,71.0,29.89,WSW,247,0.0,-999.0,91,-99.99,,,0.02,Acu-Link.com,2013-07-19 03:14:00,
2013-07-18 23:29:00,73.2,71.4,29.89,SE,135,1.1,-999.0,94,-99.99,,,0.02,Acu-Link.com,2013-07-19 03:29:00,
2013-07-18 23:44:00,72.9,71.4,29.91,WNW,292,0.0,-999.0,95,-99.99,,,0.02,Acu-Link.com,2013-07-19 03:44:00,
2013-07-18 23:59:00,72.9,71.4,29.89,WNW,292,0.0,-999.0,95,-99.99,,,0.02,Acu-Link.com,2013-07-19 03:59:00,